Regional Weather Roundup
Issued by NWS

Home | Current Version | Previous Version | Text Only | Print | Product List | Glossary On
Versions: 1 2 3 4 5 6 7 8 9 10 11 12 13 14 15 16 17 18 19 20 21 22 23 24 25 26 27 28 29 30 31 32 33 34 35 36 37 38 39 40 41 42 43 44 45 46 47 48 49 50
000
ASUS46 KSTO 211315
RWRCA

NORTHERN AND CENTRAL CA REGIONAL WEATHER ROUNDUP
NATIONAL WEATHER SERVICE SACRAMENTO CA
500 AM PST SAT JAN 21 2017

NOTE: FAIR INDICATES FEW OR NO CLOUDS BELOW 12,000 FEET WITH NO
SIGNIFICANT WEATHER AND/OR OBSTRUCTIONS TO VISIBILITY.

CAZ001-003-211400-
NORTHWEST AREA

CITY           SKY/WX    TMP DP  RH WIND       PRES   REMARKS
CRESCENT CITY  CLOUDY    48  44  86 S22       29.37R
UKIAH          LGT RAIN  45  42  89 E5        29.55R
$$

CAZ006-505>513-211400-
BAY AREA

CITY           SKY/WX    TMP DP  RH WIND       PRES   REMARKS
SANTA ROSA     LGT RAIN  47  45  93 NE5       29.59R
SAN RAFAEL     N/A       47  MM  MM MISG
NAPA           LGT RAIN  49  45  86 W5        29.62R
CONCORD        CLEAR     46  41  82 S8        29.63R
OAKLAND CITY   N/A      MM  MM  MM MISG
OAKLAND        MOCLDY    52  46  80 SW14      29.65R
SAN FRAN CITY  N/A       49  MM  81 MISG
SAN FRAN ARPT  RAIN      49  43  80 W12       29.65R
LIVERMORE      MOCLDY    45  41  86 SW7       29.64R
HAYWARD        PTCLDY    49  41  74 S8        29.65R
REDWOOD CITY   N/A       49  MM  88 MISG
MOFFETT ARPT   PTCLDY    47  42  83 CALM      29.67R
SAN JOSE ARPT  MOCLDY    45  42  89 SE8       29.67R
$$
CAZ034-037-514>518-211400-
CENTRAL COAST

CITY           SKY/WX    TMP DP  RH WIND       PRES   REMARKS
WATSONVILLE    LGT RAIN  43  43 100 NW5       29.69R
SALINAS        RAIN      44  42  93 E7        29.70R
MONTEREY       MOCLDY    50  44  80 SW12      29.70R
SAN LUIS OBISP LGT RAIN  47  43  86 S8        29.75R FOG
SANTA MARIA    CLOUDY    44  44 100 S5        29.75R
$$
CAZ015-016-211400-
NORTHERN SACRAMENTO VALLEY

CITY           SKY/WX    TMP DP  RH WIND       PRES   REMARKS
REDDING        CLOUDY    45  42  89 S14       29.48R
RED BLUFF      LGT RAIN  45  42  89 SE15      29.51R
OROVILLE       CLOUDY    47  42  83 S18G25    29.57R
$$
CAZ016>018-211400-
SOUTHERN SACRAMENTO VALLEY

CITY           SKY/WX    TMP DP  RH WIND       PRES   REMARKS
AUBURN         CLOUDY    43  41  93 S12       29.59R
BEALE AFB      CLOUDY    45  45 100 S20       29.56R
LINCOLN        CLOUDY    45  41  87 S15G21    29.59R
MARYSVILLE     PTCLDY    46  41  82 S14       29.58R
SAC INTL ARPT  CLOUDY    47  44  90 S15       29.60R
MATHER AIRPORT CLOUDY    45  43  93 S10       29.62R
DOWNTOWN SAC   N/A       46  MM  MM MISG
SAC EXEC ARPT  CLOUDY    46  44  93 S9        29.62R
VACAVILLE      CLOUDY    48  45  89 SE7       29.62R
TRAVIS AFB     CLOUDY    48  43  82 S8        29.60R
$$
CAZ019>021-211400-
SAN JOAQUIN VALLEY

CITY           SKY/WX    TMP DP  RH WIND       PRES   REMARKS
STOCKTON       LGT RAIN  45  43  93 SE12      29.64R
MODESTO        LGT RAIN  46  42  86 SE6       29.67R
MERCED         LGT RAIN  43  40  89 SE8       29.68R
LEMOORE        CLOUDY    43  37  79 SW8       29.72R
FRESNO         CLOUDY    43  40  89 SE6       29.71R
HANFORD        CLOUDY    43  42  97 E3        29.72R
PORTERVILLE    CLEAR     39  38  96 SE6       29.73R WCI  35
BAKERSFIELD    PTCLDY    42  37  82 CALM      29.72R
$$
CAZ011-012-071-211400-
NORTHERN MOUNTAINS

CITY           SKY/WX    TMP DP  RH WIND       PRES   REMARKS
YREKA          MOCLDY    33  29  85 S5        29.36R WCI  29
MOUNT SHASTA   LGT SNOW  33  30  88 E3        29.38R FOG
ALTURAS        CLOUDY    32  26  78 S7        29.37R WCI  26
$$
CAZ011-012-071-211400-
SIERRA NEVADA MTNS

CITY           SKY/WX    TMP DP  RH WIND       PRES   REMARKS
BLUE CANYON    HVY SNOW  29  28  96 S12       29.49R WCI  19
TRUCKEE        LGT SNOW  27  23  86 SW7       29.45R WCI  19
TAHOE VLY ARPT LGT SNOW  25  21  85 S7        29.45R FOG     WCI  17
MAMMOTH LAKES  FAIR      24  13  63 SW22G33   29.46R HAZE    WCI   8
$$




USA.gov is the U.S. government's official web portal to all federal, state and local government web resources and services.